SXM-8

Last updated on Sun Jun 21 2026 00:03:08 GMT+0000 (Coordinated Universal Time)

1 48838U 21049A 26171.32544868 -.00000210 00000+0 00000+0 0 9996 2 48838 0.0192 19.7196 0005064 11.6595 269.1643 1.00271411 18614
UTC large
Height (km)
Speed (km/s)
/
Latitude / Longitude
Inclination (degrees)
Orbital Period (minutes)
Azimuth
Elevation
Range (km)
Doppler Factor

Next 0 passes for location: London (51.5072 / 0.1276)

No passes found over London.
SXM-8